STARLINK-3978 (52635 NORAD) Tracking and Keplerian Element Data

This shows tracking and keplerian element data for the satellite.

Feedback or suggestion? Click here.




ElementValue
Catalog52635
NameSTARLINK-3978
Epoch Orbit130
Epoch Day167.08334491
Epoch Year2022
RAAN279.9958
Inclination53.2142
Eccentricity0.0001497
Argument of Perigee28.636
Mean Anonmoly11.0467
Mean Motion15.73203455
Decay Rate0.0006175
L11 52635U 22052AP 22167.08334491 .00061750 00000+0 44109-3 0 9991
L22 52635 53.2142 279.9958 0001497 28.6360 11.0467 15.73203455 1303

Live tracking and technical data element details for STARLINK-3978 (NORAD 52635). STARLINK-3978 can be tracked NOW for your location showing map with azimuth and elevation plus other details from your city location.

Track the satellite on the map from your city or location and see movement details for azimuth, elevation, latitude, longitude, range, height, and movement on the map or in text.







IsCatalogInMostPopularTable: catalog: 52635, numindb: 1
Update: records affected: 1



GetName: 52635 STARLINK-3978

Hit Count: updated at: Mon, 27 Jun 2022 05:07:03 GMT